[[{"header":{"parameterUnit":"m.s-1","parameterCategory":1,"la1":30.2991,"la2":30.254,"lo1":-89.0895,"lo2":-89.0444,"dy":0.0017,"dx":0.0017,"nx":28,"ny":28,"refTime":"2024-09-03T21:00:00:Z","depth":0,"parameterNumber":2,"parameterNumberName":"U-component_of_WINDS"},"data":[0,0,0,0,0,0,0,0,0,0,0,0,0,0,0,0,0,0,0,0,0,0,0,0,0,0,0,0,0,0,0,0,0,0,0,0,0,0,0,0,0,0,0,0,0,0,0,0,0,0,0,0,0,0,0,0,0,0,-8.0572,-8.0572,0,-8.0522,-8.0521,-8.0521,-8.0286,-8.0281,-8.0275,-8.027,-8.0221,-8.0224,-8.0228,0,0,0,0,0,0,0,0,0,0,0,0,0,-8.047,-8.0473,-8.0572,-8.0572,-8.0571,-8.0522,-8.0521,-8.0521,-8.0287,-8.028,-8.0274,-8.0267,-8.0219,-8.0224,-8.0228,0,0,0,0,0,0,0,0,0,0,0,0,0,-8.0477,-8.0474,-8.0573,-8.0449,-8.0437,-8.0522,-8.0521,-8.052,-8.0289,-8.028,-8.0272,-8.0264,-8.0218,-8.0223,-8.0229,-8.043,0,0,-8.0247,-8.0249,0,0,0,0,0,0,0,0,-8.0477,-8.0481,-8.0468,-8.0457,-8.0445,-8.0402,-8.0467,-8.049,-8.0291,-8.0345,-8.027,-8.026,-8.0288,-8.0287,-8.0296,-8.0428,-8.0425,-8.0247,-8.025,-8.0253,-8.0255,0,0,0,0,0,0,0,-8.0476,-8.0482,-8.0552,-8.0468,-8.0454,-8.0397,-8.0389,-8.047,-8.0364,-8.034,-8.0323,-8.032,-8.028,-8.0291,-8.0293,-8.0425,-8.0247,-8.0252,-8.0255,-8.0258,-8.0718,-8.0727,0,0,0,0,0,0,-8.0493,-8.0483,-8.0554,-8.0551,-8.0441,-8.0405,-8.0396,-8.0424,-8.0362,-8.0344,-8.0327,-8.0309,-8.0285,-8.0287,-8.029,-8.0519,-8.0253,-8.0258,-8.0262,-8.071,-8.072,-8.073,0,0,0,0,0,0,-8.0492,-8.0502,-8.0556,-8.0512,-8.0515,-8.0416,-8.0449,-8.0427,-8.0438,-8.0352,-8.0332,-8.0357,-8.0279,-8.0282,-8.0397,-8.0515,-8.0261,-8.0266,-8.0699,-8.0713,-8.0725,-8.0982,0,0,0,0,0,0,-8.049,-8.0503,-8.0577,-8.0516,-8.0518,-8.0663,-8.0456,-8.0432,-8.0448,-8.0424,-8.0376,-8.036,-8.0273,-8.0389,-8.0402,-8.0518,-8.0271,-8.0688,-8.0705,-8.0721,-8.0962,-8.1002,-8.1036,0,0,0,0,0,-8.0487,-8.0652,-8.0582,-8.0592,-8.0609,-8.067,-8.0671,-8.0567,-8.0459,-8.0533,-8.0478,-8.0361,-8.0501,-8.0403,-8.0416,-8.0535,-8.068,-8.0701,-8.072,-8.0945,-8.0994,-8.1035,0,0,0,0,0,0,-8.0729,-8.0641,-8.0563,-8.0712,-8.0701,-8.063,-8.072,-8.0622,-8.0641,-8.0618,-8.0489,-8.048,-8.0613,-8.0586,-8.0478,-8.0726,-8.0571,-8.0594,-8.0738,-8.0784,-8.082,-8.0822,-8.0275,0,0,0,0,0,-8.08,-8.0857,-8.0777,-8.0917,-8.0915,-8.082,-8.0843,-8.0764,-8.0746,-8.074,-8.0693,-8.0682,-8.0723,-8.0752,-8.0785,-8.0959,-8.0944,-8.1047,-8.1084,-8.1115,-8.1135,-8.1224,-8.1269,-8.0795,-8.0795,-8.0794,0,0,-8.0947,-8.0906,-8.0949,-8.0965,-8.0946,-8.1008,-8.0817,-8.089,-8.0935,-8.0751,-8.0855,-8.0822,-8.0801,-8.0945,-8.1007,-8.0926,-8.1264,-8.114,-8.1166,-8.1169,-8.1249,-8.1294,-8.1334,-8.0808,-8.0806,-8.0804,0,0,-8.1244,-8.1221,-8.1333,-8.1319,-8.1293,-8.1229,-8.1258,-8.1203,-8.1173,-8.1276,-8.114,-8.1193,-8.1266,-8.1256,-8.1261,-8.156,-8.1452,-8.1575,-8.1766,-8.1854,-8.1891,-8.1924,-8.2028,-8.2067,-8.1596,-8.1597,-8.1597,0,-8.143,-8.1516,-8.1404,-8.1486,-8.1497,-8.1335,-8.1448,-8.1441,-8.1429,-8.144,-8.1351,-8.144,-8.1415,-8.1554,-8.1627,-8.1638,-8.1665,-8.1577,-8.1895,-8.1926,-8.1955,-8.2053,-8.2093,-8.1612,-8.161,-8.1608,-8.1607,0,-8.1744,-8.1807,-8.1902,-8.1893,-8.1915,-8.2013,-8.1916,-8.1953,-8.1874,-8.182,-8.1927,-8.1892,-8.1915,-8.1943,-8.1867,-8.2073,-8.2023,-8.1918,-8.1758,-8.2017,-8.2106,-8.2143,-8.1633,-8.1627,-8.1623,-8.1619,0,0,-8.2187,-8.2118,-8.2154,-8.2148,-8.211,-8.2156,-8.2249,-8.2271,-8.2303,-8.2303,-8.2375,-8.2444,-8.2345,-8.2351,-8.2273,-8.2351,-8.2588,-8.2235,-8.2232,-8.2299,-8.2811,-8.2887,-8.2933,-8.2519,-8.2526,-8.2531,-8.2811,0,-8.2469,-8.2619,-8.2523,-8.2689,-8.2745,-8.2595,-8.2675,-8.2661,-8.2615,-8.2657,-8.2606,-8.2654,-8.2523,-8.2525,-8.2596,-8.2544,-8.2688,-8.2523,-8.2584,-8.2588,-8.2589,-8.298,-8.3061,-8.3326,-8.2846,-8.2852,-8.2856,0,-8.2816,-8.2829,-8.3001,-8.2952,-8.2972,-8.3045,-8.3058,-8.3101,-8.3083,-8.3044,-8.3053,-8.2956,-8.3043,-8.2891,-8.3009,-8.29,-8.292,-8.2899,-8.2907,-8.2904,-8.2734,-8.2985,-8.3409,-8.3447,-8.2911,-8.2906,-8.2902,0,-8.3118,-8.318,-8.3289,-8.329,-8.3237,-8.3292,-8.3273,-8.3247,-8.3267,-8.328,-8.3291,-8.3315,-8.3327,-8.3349,-8.3261,-8.3158,-8.3391,-8.3231,-8.336,-8.3362,-8.3411,-8.3408,-8.3841,-8.3433,-8.3432,-8.3432,-8.3431,0,-8.3439,-8.3549,-8.3424,-8.3492,-8.3611,-8.3501,-8.3623,-8.3588,-8.3568,-8.3626,-8.35,-8.3558,-8.3441,-8.3488,-8.3421,-8.3528,-8.3536,-8.3506,-8.3486,-8.3515,-8.3518,-8.3522,-8.35,-8.3442,-8.344,-8.3438,-8.3436,0,-8.3794,-8.3715,-8.3824,-8.3767,-8.3755,-8.3846,-8.3796,-8.3856,-8.3804,-8.388,-8.3891,-8.3808,-8.3857,-8.3773,-8.3812,-8.3767,-8.3916,-8.387,-8.3922,-8.3906,-8.4038,-8.4026,-8.4484,-8.4538,-8.4101,-8.4106,-8.4109,0,-8.4001,-8.4082,-8.4034,-8.4064,-8.4052,-8.4102,-8.4122,-8.4019,-8.4045,-8.4033,-8.4095,-8.4134,-8.4157,-8.4243,-8.4186,-8.4216,-8.4167,-8.4326,-8.417,-8.4196,-8.4164,-8.4159,-8.4165,-8.4356,-8.4362,-8.4366,-8.4369,0,-8.4377,-8.4335,-8.4367,-8.4388,-8.4415,-8.4427,-8.4429,-8.4462,-8.4353,-8.4389,-8.4437,-8.4457,-8.4497,-8.4536,-8.4552,-8.4533,-8.4434,-8.442,-8.445,-8.4478,-8.4502,-8.4487,-8.4004,-8.4408,-8.4404,-8.4402,-8.4399,-8.4398,-8.4661,-8.4725,-8.4702,-8.4743,-8.4735,-8.4741,-8.4794,-8.4749,-8.4787,-8.481,-8.4749,-8.4812,-8.4794,-8.4806,-8.4798,-8.4846,-8.4776,-8.4821,-8.4831,-8.4843,-8.4862,-8.45,-8.485,-8.4849,-8.4847,-8.4846,-8.4846,0,-8.5026,-8.5004,-8.5044,-8.5051,-8.5085,-8.4991,-8.4989,-8.5023,-8.5079,-8.5072,-8.5099,-8.5155,-8.5194,-8.5142,-8.5172,-8.522,-8.5176,-8.5231,-8.5224,-8.5221,-8.4925,-8.4894,-8.5267,-8.5267,-8.5267,-8.5267,-8.5267,-8.5267,-8.5219,-8.5323,-8.528,-8.5379,-8.5356,-8.5416,-8.5423,-8.5429,-8.5421,-8.5489,-8.5521,-8.5487,-8.5462,-8.549,-8.5521,-8.5505,-8.552,-8.5592,-8.556,-8.5283,-8.5242,-8.5202,-8.5172,-8.5597,-8.5597,-8.585,-8.5852,-8.5854]},{"header":{"parameterUnit":"m.s-1","parameterCategory":1,"la1":30.2991,"la2":30.254,"lo1":-89.0895,"lo2":-89.0444,"dy":0.0017,"dx":0.0017,"nx":28,"ny":28,"refTime":"2024-09-03T21:00:00:Z","depth":0,"parameterNumber":3,"parameterNumberName":"V-component_of_WINDS"},"data":[0,0,0,0,0,0,0,0,0,0,0,0,0,0,0,0,0,0,0,0,0,0,0,0,0,0,0,0,0,0,0,0,0,0,0,0,0,0,0,0,0,0,0,0,0,0,0,0,0,0,0,0,0,0,0,0,0,0,-0.7444,-0.7446,0,-0.7586,-0.7588,-0.7589,-0.7641,-0.7641,-0.764,-0.764,-0.7784,-0.7788,-0.7793,0,0,0,0,0,0,0,0,0,0,0,0,0,-0.7216,-0.722,-0.7444,-0.7446,-0.7448,-0.7586,-0.7588,-0.759,-0.7641,-0.7641,-0.764,-0.764,-0.7783,-0.7788,-0.7793,0,0,0,0,0,0,0,0,0,0,0,0,0,-0.7332,-0.7221,-0.7444,-0.749,-0.7496,-0.7585,-0.7588,-0.759,-0.7642,-0.7641,-0.764,-0.764,-0.7781,-0.7787,-0.7794,-0.7847,0,0,-0.7813,-0.7816,0,0,0,0,0,0,0,0,-0.7325,-0.734,-0.7482,-0.7487,-0.7494,-0.7595,-0.756,-0.7676,-0.7642,-0.7586,-0.764,-0.7639,-0.7722,-0.7733,-0.7761,-0.7854,-0.786,-0.7814,-0.7818,-0.782,-0.7822,0,0,0,0,0,0,0,-0.7317,-0.7334,-0.75,-0.7483,-0.7491,-0.7503,-0.7519,-0.7582,-0.7656,-0.7591,-0.7595,-0.7611,-0.7725,-0.7755,-0.7765,-0.7862,-0.7814,-0.7819,-0.7823,-0.7826,-0.8005,-0.8005,0,0,0,0,0,0,-0.7302,-0.7327,-0.7496,-0.7504,-0.7406,-0.7508,-0.7525,-0.7563,-0.7656,-0.7669,-0.7612,-0.7613,-0.7744,-0.7757,-0.777,-0.7838,-0.782,-0.7826,-0.783,-0.8004,-0.8005,-0.8006,0,0,0,0,0,0,-0.7297,-0.7316,-0.749,-0.7417,-0.744,-0.7512,-0.7555,-0.7566,-0.7596,-0.7671,-0.7684,-0.7629,-0.7744,-0.7761,-0.7827,-0.7844,-0.7829,-0.7835,-0.8003,-0.8004,-0.8005,-0.7975,0,0,0,0,0,0,-0.729,-0.7314,-0.7336,-0.7417,-0.7444,-0.7545,-0.7556,-0.757,-0.7608,-0.7611,-0.7691,-0.7703,-0.7745,-0.7818,-0.7834,-0.7853,-0.784,-0.8001,-0.8003,-0.8005,-0.7975,-0.7975,-0.7975,0,0,0,0,0,-0.7281,-0.7322,-0.7337,-0.7357,-0.7473,-0.7546,-0.7561,-0.7609,-0.7609,-0.7631,-0.7678,-0.7701,-0.7839,-0.7824,-0.7843,-0.7864,-0.8001,-0.8003,-0.8005,-0.7975,-0.7975,-0.7975,0,0,0,0,0,0,-0.724,-0.7333,-0.7351,-0.7419,-0.7474,-0.7555,-0.7584,-0.7608,-0.7664,-0.7665,-0.7721,-0.7738,-0.78,-0.7838,-0.7819,-0.7919,-0.7921,-0.7927,-0.7892,-0.7893,-0.7893,-0.7883,-0.7845,0,0,0,0,0,-0.7239,-0.7291,-0.737,-0.7422,-0.7449,-0.7511,-0.7545,-0.7577,-0.7636,-0.766,-0.7713,-0.7769,-0.7826,-0.7861,-0.7917,-0.798,-0.7998,-0.8004,-0.8004,-0.8004,-0.8008,-0.8044,-0.8047,-0.8012,-0.8012,-0.8012,0,0,-0.7237,-0.7294,-0.7324,-0.7415,-0.7462,-0.7514,-0.7531,-0.7586,-0.7625,-0.7668,-0.7734,-0.7774,-0.7841,-0.7906,-0.7937,-0.794,-0.8022,-0.8007,-0.8006,-0.8011,-0.8046,-0.8049,-0.8052,-0.8014,-0.8014,-0.8013,0,0,-0.726,-0.7309,-0.7357,-0.7404,-0.7474,-0.7515,-0.7527,-0.7604,-0.7632,-0.7699,-0.7732,-0.7779,-0.7875,-0.7921,-0.7957,-0.7996,-0.8018,-0.8012,-0.8014,-0.8048,-0.805,-0.8053,-0.8066,-0.807,-0.8016,-0.8016,-0.8016,0,-0.7249,-0.733,-0.7379,-0.7432,-0.7471,-0.7512,-0.7561,-0.7603,-0.7688,-0.7713,-0.7715,-0.7836,-0.7884,-0.7959,-0.7968,-0.7996,-0.8011,-0.8004,-0.8046,-0.8049,-0.8052,-0.8066,-0.807,-0.8015,-0.8015,-0.8015,-0.8015,0,-0.7312,-0.7367,-0.7398,-0.7478,-0.752,-0.7571,-0.7627,-0.7664,-0.7691,-0.7732,-0.7798,-0.7857,-0.7925,-0.7945,-0.7973,-0.8024,-0.8024,-0.8035,-0.8038,-0.8054,-0.8067,-0.8072,-0.8013,-0.8014,-0.8014,-0.8014,0,0,-0.7314,-0.7421,-0.7431,-0.7468,-0.7548,-0.7591,-0.7643,-0.771,-0.7739,-0.7796,-0.784,-0.792,-0.793,-0.7971,-0.8004,-0.8033,-0.8059,-0.8041,-0.8043,-0.8042,-0.8119,-0.811,-0.8115,-0.8074,-0.8076,-0.8077,-0.8113,0,-0.7347,-0.7443,-0.7488,-0.7563,-0.7614,-0.7653,-0.7698,-0.7752,-0.7791,-0.7839,-0.7882,-0.7937,-0.7947,-0.7972,-0.8003,-0.8049,-0.8075,-0.8047,-0.8116,-0.8118,-0.8098,-0.8122,-0.8113,-0.8145,-0.8119,-0.812,-0.812,0,-0.7399,-0.7456,-0.7536,-0.7609,-0.7632,-0.7672,-0.7736,-0.7782,-0.7843,-0.7869,-0.7913,-0.7945,-0.8,-0.7998,-0.8075,-0.8055,-0.8085,-0.8112,-0.8114,-0.8123,-0.812,-0.8131,-0.8156,-0.8161,-0.8129,-0.8128,-0.8128,0,-0.7392,-0.7488,-0.7548,-0.7578,-0.7665,-0.7692,-0.7729,-0.779,-0.7826,-0.7882,-0.7906,-0.7967,-0.8001,-0.8047,-0.8094,-0.8089,-0.8165,-0.8168,-0.8188,-0.8187,-0.8203,-0.8201,-0.8233,-0.8222,-0.8222,-0.8222,-0.8222,0,-0.7425,-0.7472,-0.7546,-0.7583,-0.7637,-0.7688,-0.7739,-0.7779,-0.7832,-0.7877,-0.7914,-0.7955,-0.8015,-0.8063,-0.81,-0.8157,-0.8172,-0.8194,-0.8203,-0.8191,-0.8188,-0.8211,-0.821,-0.8223,-0.8223,-0.8223,-0.8222,0,-0.7426,-0.7478,-0.7546,-0.7622,-0.7642,-0.7678,-0.7743,-0.778,-0.782,-0.7876,-0.7892,-0.7955,-0.8014,-0.8065,-0.8142,-0.8167,-0.8225,-0.8237,-0.8205,-0.821,-0.8227,-0.8224,-0.8275,-0.8284,-0.8267,-0.8267,-0.8267,0,-0.7444,-0.7481,-0.7561,-0.7594,-0.763,-0.7683,-0.772,-0.7771,-0.7809,-0.788,-0.7908,-0.7969,-0.8021,-0.8113,-0.8165,-0.8224,-0.8237,-0.8251,-0.8246,-0.8232,-0.8237,-0.8234,-0.8238,-0.8251,-0.8251,-0.8251,-0.8251,0,-0.7469,-0.7493,-0.7546,-0.7607,-0.7651,-0.7702,-0.7754,-0.7778,-0.7839,-0.7879,-0.7939,-0.7979,-0.8058,-0.8118,-0.8182,-0.822,-0.8245,-0.8251,-0.8259,-0.8247,-0.8227,-0.8237,-0.8205,-0.825,-0.825,-0.825,-0.825,-0.825,-0.7479,-0.7514,-0.7575,-0.7633,-0.7677,-0.7724,-0.7762,-0.7807,-0.7858,-0.7926,-0.7953,-0.8014,-0.8073,-0.8163,-0.82,-0.8248,-0.8252,-0.8264,-0.8267,-0.8269,-0.8266,-0.8219,-0.826,-0.826,-0.826,-0.826,-0.826,0,-0.7506,-0.7548,-0.76,-0.7671,-0.7716,-0.7735,-0.7793,-0.7829,-0.7883,-0.7936,-0.7986,-0.8054,-0.8112,-0.8169,-0.823,-0.8257,-0.827,-0.8271,-0.827,-0.8278,-0.8259,-0.8246,-0.826,-0.826,-0.826,-0.826,-0.826,-0.826,-0.7526,-0.7585,-0.7615,-0.7696,-0.7737,-0.7798,-0.7829,-0.7872,-0.7915,-0.799,-0.8038,-0.8074,-0.8128,-0.8193,-0.8247,-0.8262,-0.8283,-0.8281,-0.8299,-0.828,-0.8279,-0.8279,-0.8267,-0.8285,-0.8285,-0.8314,-0.8314,-0.8314]}]]